Time,TemperatureF,DewpointF,PressureIn,WindDirection,WindDirectionDegrees,WindSpeedMPH,WindSpeedGustMPH,Humidity,HourlyPrecipIn,Conditions,Clouds,dailyrainin,SolarRadiationWatts/m^2,SoftwareType,DateUTC
2013-06-16 00:01:00,60.0,43.0,-100.00,ESE,118,5.0,9.0,54,0.00,,,0.00,1.000000,,2013-06-16 06:01:00,
2013-06-16 00:11:00,60.0,43.0,-100.00,ESE,118,5.0,9.0,54,0.00,,,0.00,1.000000,,2013-06-16 06:11:00,
2013-06-16 00:43:00,61.0,42.0,-100.00,SSE,161,9.0,15.0,49,0.00,,,0.00,1.000000,,2013-06-16 06:43:00,
2013-06-16 00:52:00,61.0,42.0,-100.00,SSE,161,9.0,15.0,49,0.00,,,0.00,1.000000,,2013-06-16 06:52:00,
2013-06-16 01:01:00,61.0,42.0,-100.00,SSE,161,9.0,15.0,49,0.00,,,0.00,1.000000,,2013-06-16 07:01:00,
2013-06-16 01:11:00,61.0,42.0,-100.00,SSE,161,9.0,15.0,49,0.00,,,0.00,1.000000,,2013-06-16 07:11:00,
2013-06-16 01:43:00,59.0,44.0,-100.00,SSE,165,7.0,14.0,57,0.00,,,0.00,1.000000,,2013-06-16 07:43:00,
2013-06-16 01:53:00,59.0,44.0,-100.00,SSE,165,7.0,14.0,57,0.00,,,0.00,1.000000,,2013-06-16 07:53:00,
2013-06-16 02:02:00,59.0,44.0,-100.00,SSE,165,7.0,14.0,57,0.00,,,0.00,1.000000,,2013-06-16 08:02:00,
2013-06-16 02:11:00,59.0,44.0,-100.00,SSE,165,7.0,14.0,57,0.00,,,0.00,1.000000,,2013-06-16 08:11:00,
2013-06-16 02:43:00,58.0,44.0,-100.00,SE,131,4.0,11.0,59,0.00,,,0.00,1.000000,,2013-06-16 08:43:00,
2013-06-16 02:54:00,58.0,44.0,-100.00,SE,131,4.0,11.0,59,0.00,,,0.00,1.000000,,2013-06-16 08:54:00,
2013-06-16 03:01:00,58.0,44.0,-100.00,SE,131,4.0,11.0,59,0.00,,,0.00,1.000000,,2013-06-16 09:01:00,
2013-06-16 03:11:00,58.0,44.0,-100.00,SE,131,4.0,11.0,59,0.00,,,0.00,1.000000,,2013-06-16 09:11:00,
2013-06-16 03:43:00,54.0,42.0,-100.00,NE,53,6.0,10.0,64,0.00,,,0.00,1.000000,,2013-06-16 09:43:00,
2013-06-16 03:52:00,54.0,42.0,-100.00,NE,53,6.0,10.0,64,0.00,,,0.00,1.000000,,2013-06-16 09:52:00,
2013-06-16 04:01:00,54.0,42.0,-100.00,NE,53,6.0,10.0,64,0.00,,,0.00,1.000000,,2013-06-16 10:01:00,
2013-06-16 04:12:00,54.0,42.0,-100.00,NE,53,6.0,10.0,64,0.00,,,0.00,1.000000,,2013-06-16 10:12:00,
2013-06-16 04:43:00,56.0,43.0,-100.00,ENE,65,9.0,12.0,62,0.00,,,0.00,1.000000,,2013-06-16 10:43:00,
2013-06-16 04:54:00,56.0,43.0,-100.00,ENE,65,9.0,12.0,62,0.00,,,0.00,1.000000,,2013-06-16 10:54:00,
2013-06-16 05:02:00,56.0,43.0,-100.00,ENE,65,9.0,12.0,62,0.00,,,0.00,1.000000,,2013-06-16 11:02:00,
2013-06-16 05:11:00,56.0,43.0,-100.00,ENE,65,9.0,12.0,62,0.00,,,0.00,1.000000,,2013-06-16 11:11:00,
2013-06-16 05:43:00,57.0,42.0,-100.00,ENE,70,10.0,13.0,58,0.00,,,0.00,1.000000,,2013-06-16 11:43:00,
2013-06-16 05:53:00,57.0,42.0,-100.00,ENE,70,10.0,13.0,58,0.00,,,0.00,1.000000,,2013-06-16 11:53:00,
2013-06-16 06:02:00,57.0,42.0,-100.00,ENE,70,10.0,13.0,58,0.00,,,0.00,1.000000,,2013-06-16 12:02:00,
2013-06-16 06:11:00,57.0,42.0,-100.00,ENE,70,10.0,13.0,58,0.00,,,0.00,1.000000,,2013-06-16 12:11:00,
2013-06-16 06:43:00,56.0,41.0,-100.00,ENE,76,8.0,12.0,58,0.00,,,0.00,5.000000,,2013-06-16 12:43:00,
2013-06-16 06:53:00,56.0,41.0,-100.00,ENE,76,8.0,12.0,58,0.00,,,0.00,5.000000,,2013-06-16 12:53:00,
2013-06-16 07:01:00,56.0,41.0,-100.00,ENE,76,8.0,12.0,58,0.00,,,0.00,5.000000,,2013-06-16 13:01:00,
2013-06-16 07:11:00,56.0,41.0,-100.00,ENE,76,8.0,12.0,58,0.00,,,0.00,5.000000,,2013-06-16 13:11:00,
2013-06-16 07:43:00,62.0,43.0,-100.00,East,96,7.0,12.0,50,0.00,,,0.00,78.000000,,2013-06-16 13:43:00,
2013-06-16 07:53:00,62.0,43.0,-100.00,East,96,7.0,12.0,50,0.00,,,0.00,78.000000,,2013-06-16 13:53:00,
2013-06-16 08:02:00,62.0,43.0,-100.00,East,96,7.0,12.0,50,0.00,,,0.00,78.000000,,2013-06-16 14:02:00,
2013-06-16 08:12:00,62.0,43.0,-100.00,East,96,7.0,12.0,50,0.00,,,0.00,78.000000,,2013-06-16 14:12:00,
2013-06-16 08:44:00,68.0,43.0,-100.00,East,98,8.0,13.0,40,0.00,,,0.00,281.000000,,2013-06-16 14:44:00,
2013-06-16 08:52:00,68.0,43.0,-100.00,East,98,8.0,13.0,40,0.00,,,0.00,281.000000,,2013-06-16 14:52:00,
2013-06-16 09:02:00,68.0,43.0,-100.00,East,98,8.0,13.0,40,0.00,,,0.00,281.000000,,2013-06-16 15:02:00,
2013-06-16 09:12:00,68.0,43.0,-100.00,East,98,8.0,13.0,40,0.00,,,0.00,281.000000,,2013-06-16 15:12:00,
2013-06-16 09:43:00,73.0,41.0,-100.00,South,190,5.0,11.0,32,0.00,,,0.00,512.000000,,2013-06-16 15:43:00,
2013-06-16 09:53:00,73.0,41.0,-100.00,South,190,5.0,11.0,32,0.00,,,0.00,512.000000,,2013-06-16 15:53:00,
2013-06-16 10:02:00,73.0,41.0,-100.00,South,190,5.0,11.0,32,0.00,,,0.00,512.000000,,2013-06-16 16:02:00,
2013-06-16 10:12:00,73.0,41.0,-100.00,South,190,5.0,11.0,32,0.00,,,0.00,512.000000,,2013-06-16 16:12:00,
2013-06-16 10:43:00,75.0,40.0,-100.00,SSW,193,5.0,11.0,28,0.00,,,0.00,628.000000,,2013-06-16 16:43:00,
2013-06-16 10:53:00,75.0,40.0,-100.00,SSW,193,5.0,11.0,28,0.00,,,0.00,628.000000,,2013-06-16 16:53:00,
2013-06-16 11:02:00,75.0,40.0,-100.00,SSW,193,5.0,11.0,28,0.00,,,0.00,628.000000,,2013-06-16 17:02:00,
2013-06-16 11:12:00,75.0,40.0,-100.00,SSW,193,5.0,11.0,28,0.00,,,0.00,628.000000,,2013-06-16 17:12:00,
2013-06-16 11:43:00,78.0,37.0,-100.00,SW,230,7.0,13.0,23,0.00,,,0.00,914.000000,,2013-06-16 17:43:00,
2013-06-16 11:53:00,78.0,37.0,-100.00,SW,230,7.0,13.0,23,0.00,,,0.00,914.000000,,2013-06-16 17:53:00,
2013-06-16 12:02:00,78.0,37.0,-100.00,SW,230,7.0,13.0,23,0.00,,,0.00,914.000000,,2013-06-16 18:02:00,
2013-06-16 12:12:00,78.0,37.0,-100.00,SW,230,7.0,13.0,23,0.00,,,0.00,914.000000,,2013-06-16 18:12:00,
2013-06-16 12:43:00,82.0,34.0,-100.00,West,259,10.0,17.0,18,0.00,,,0.00,1081.000000,,2013-06-16 18:43:00,
2013-06-16 12:52:00,82.0,34.0,-100.00,West,259,10.0,17.0,18,0.00,,,0.00,1081.000000,,2013-06-16 18:52:00,
2013-06-16 13:01:00,82.0,34.0,-100.00,West,259,10.0,17.0,18,0.00,,,0.00,1081.000000,,2013-06-16 19:01:00,
2013-06-16 13:11:00,82.0,34.0,-100.00,West,259,10.0,17.0,18,0.00,,,0.00,1081.000000,,2013-06-16 19:11:00,
2013-06-16 13:43:00,82.0,31.0,-100.00,WSW,253,8.0,19.0,16,0.00,,,0.00,1153.000000,,2013-06-16 19:43:00,
2013-06-16 13:53:00,82.0,31.0,-100.00,WSW,253,8.0,19.0,16,0.00,,,0.00,1153.000000,,2013-06-16 19:53:00,
2013-06-16 14:02:00,82.0,31.0,-100.00,WSW,253,8.0,19.0,16,0.00,,,0.00,1153.000000,,2013-06-16 20:02:00,
2013-06-16 14:11:00,82.0,31.0,-100.00,WSW,253,8.0,19.0,16,0.00,,,0.00,1153.000000,,2013-06-16 20:11:00,
2013-06-16 14:43:00,84.0,30.0,-100.00,NW,308,8.0,23.0,14,0.00,,,0.00,1119.000000,,2013-06-16 20:43:00,
2013-06-16 14:53:00,84.0,30.0,-100.00,NW,308,8.0,23.0,14,0.00,,,0.00,1119.000000,,2013-06-16 20:53:00,
2013-06-16 15:01:00,84.0,30.0,-100.00,NW,308,8.0,23.0,14,0.00,,,0.00,1119.000000,,2013-06-16 21:01:00,
2013-06-16 15:11:00,84.0,30.0,-100.00,NW,308,8.0,23.0,14,0.00,,,0.00,1119.000000,,2013-06-16 21:11:00,
2013-06-16 15:42:00,81.0,31.0,-100.00,West,275,12.0,21.0,16,0.00,,,0.00,779.000000,,2013-06-16 21:42:00,
2013-06-16 15:53:00,81.0,31.0,-100.00,West,275,12.0,21.0,16,0.00,,,0.00,779.000000,,2013-06-16 21:53:00,
2013-06-16 16:01:00,81.0,31.0,-100.00,West,275,12.0,21.0,16,0.00,,,0.00,779.000000,,2013-06-16 22:01:00,
2013-06-16 16:12:00,81.0,31.0,-100.00,West,275,12.0,21.0,16,0.00,,,0.00,779.000000,,2013-06-16 22:12:00,
2013-06-16 16:42:00,82.0,31.0,-100.00,SE,143,6.0,16.0,16,0.00,,,0.00,820.000000,,2013-06-16 22:42:00,
2013-06-16 16:52:00,82.0,31.0,-100.00,SE,143,6.0,16.0,16,0.00,,,0.00,820.000000,,2013-06-16 22:52:00,
2013-06-16 17:01:00,82.0,31.0,-100.00,SE,143,6.0,16.0,16,0.00,,,0.00,820.000000,,2013-06-16 23:01:00,
2013-06-16 17:11:00,82.0,31.0,-100.00,SE,143,6.0,16.0,16,0.00,,,0.00,820.000000,,2013-06-16 23:11:00,
2013-06-16 17:42:00,83.0,29.0,-100.00,West,281,15.0,21.0,14,0.00,,,-99.99,458.000000,,2013-06-16 23:42:00,
2013-06-16 17:52:00,83.0,29.0,-100.00,West,281,15.0,21.0,14,0.00,,,-99.99,458.000000,,2013-06-16 23:52:00,
2013-06-16 18:02:00,83.0,29.0,-100.00,West,281,15.0,21.0,14,0.00,,,-99.99,458.000000,,2013-06-17 00:02:00,
2013-06-16 18:11:00,83.0,29.0,-100.00,West,281,15.0,21.0,14,0.00,,,-99.99,458.000000,,2013-06-17 00:11:00,
2013-06-16 19:43:00,80.0,27.0,-100.00,SSW,204,8.0,16.0,14,-99.99,,,0.00,312.000000,,2013-06-17 01:43:00,
2013-06-16 19:53:00,80.0,27.0,-100.00,SSW,204,8.0,16.0,14,-99.99,,,0.00,312.000000,,2013-06-17 01:53:00,
2013-06-16 20:02:00,80.0,27.0,-100.00,SSW,204,8.0,16.0,14,-99.99,,,0.00,312.000000,,2013-06-17 02:02:00,
2013-06-16 20:12:00,80.0,27.0,-100.00,SSW,204,8.0,16.0,14,-99.99,,,0.00,312.000000,,2013-06-17 02:12:00,
2013-06-16 20:43:00,74.0,34.0,-100.00,ESE,117,4.0,9.0,23,0.00,,,0.00,123.000000,,2013-06-17 02:43:00,
2013-06-16 20:53:00,74.0,34.0,-100.00,ESE,117,4.0,9.0,23,0.00,,,0.00,123.000000,,2013-06-17 02:53:00,
2013-06-16 21:02:00,74.0,34.0,-100.00,ESE,117,4.0,9.0,23,0.00,,,0.00,123.000000,,2013-06-17 03:02:00,
2013-06-16 21:12:00,74.0,34.0,-100.00,ESE,117,4.0,9.0,23,0.00,,,0.00,123.000000,,2013-06-17 03:12:00,
2013-06-16 21:44:00,67.0,34.0,-100.00,ESE,106,5.0,6.0,29,0.00,,,0.00,4.000000,,2013-06-17 03:44:00,
2013-06-16 21:54:00,67.0,34.0,-100.00,ESE,106,5.0,6.0,29,0.00,,,0.00,4.000000,,2013-06-17 03:54:00,
2013-06-16 22:02:00,67.0,34.0,-100.00,ESE,106,5.0,6.0,29,0.00,,,0.00,4.000000,,2013-06-17 04:02:00,
2013-06-16 22:12:00,67.0,34.0,-100.00,ESE,106,5.0,6.0,29,0.00,,,0.00,4.000000,,2013-06-17 04:12:00,
2013-06-16 22:43:00,67.0,31.0,-100.00,ESE,103,4.0,6.0,26,0.00,,,0.00,1.000000,,2013-06-17 04:43:00,
2013-06-16 22:53:00,67.0,31.0,-100.00,ESE,103,4.0,6.0,26,0.00,,,0.00,1.000000,,2013-06-17 04:53:00,
2013-06-16 23:02:00,67.0,31.0,-100.00,ESE,103,4.0,6.0,26,0.00,,,0.00,1.000000,,2013-06-17 05:02:00,
2013-06-16 23:12:00,67.0,31.0,-100.00,ESE,103,4.0,6.0,26,0.00,,,0.00,1.000000,,2013-06-17 05:12:00,
2013-06-16 23:44:00,67.0,31.0,-100.00,ESE,107,4.0,6.0,26,0.00,,,0.00,1.000000,,2013-06-17 05:44:00,
2013-06-16 23:53:00,67.0,31.0,-100.00,ESE,107,4.0,6.0,26,0.00,,,0.00,1.000000,,2013-06-17 05:53:00,